Weather History for KAZO - February, 2014

Change the Weather History Date:

Wednesday, February 12, 2014

  Actual Average Record
Temperature  
Mean Temperature 6 °F 26 °F  
Max Temperature 21 °F 33 °F - ()
Min Temperature -10 °F 19 °F - ()
Degree Days  
Heating Degree Days 59 39  
Month to date heating degree days 637 476  
Since 1 July heating degree days 4467 4184  
Cooling Degree Days 0 0  
Month to date cooling degree days 0 0  
Year to date cooling degree days 0 0  
Moisture  
Dew Point 0 °F    
Average Humidity 69    
Maximum Humidity 86    
Minimum Humidity 51    
Precipitation  
Precipitation 0.00 in 0.06 in - ()
Month to date precipitation 0.35 0.55  
Year to date precipitation 1.47 2.34  
Sea Level Pressure  
Sea Level Pressure 30.28 in    
Wind  
Wind Speed 5 mph (South)    
Max Wind Speed 12 mph    
Max Gust Speed 14 mph    
Visibility 10 miles    
Events      
T = Trace of Precipitation, MM = Missing Value Source: NWS Daily Summary

Daily Weather History Graph

Daily Weather History Graph

Search for Another Location

Airport or City:

Trip Planner

Search our weather history database for the weather conditions in past years. The results will help you decide how hot, cold, wet, or windy it might be!

Date:

Astronomy

Feb. 12, 2014 Rise Set
Actual Time 7:42 AM EST 6:10 PM EST
Civil Twilight 7:13 AM EST 6:39 PM EST
Nautical Twilight 6:40 AM EST 7:12 PM EST
Astronomical Twilight 6:08 AM EST 7:45 PM EST
Moon 4:23 PM EST (2/12) 5:59 AM EST (2/12)
Length of Visible Light 11h 26m
Length of Day
10h 28m
Waxing Gibbous, 95% of the Moon is Illuminated
Feb 12
Waxing Gibbous
Feb 14
Full
Feb 22
Last Quarter
Mar 1
New
Mar 8
First Quarter

Hourly Weather History & Observations

Time (EST) Temp. Windchill Dew Point Humidity Pressure Visibility Wind Dir Wind Speed Gust Speed Precip Events Conditions
12:53 AM 1.0 °F -10.3 °F -4.0 °F 79% 30.46 in 10.0 mi SSE 5.8 mph - N/A   Clear
1:53 AM -0.0 °F -9.9 °F -5.1 °F 79% 30.44 in 10.0 mi SSE 4.6 mph - N/A   Clear
2:53 AM -0.0 °F -7.9 °F -5.1 °F 79% 30.43 in 10.0 mi SSE 3.5 mph - N/A   Clear
3:53 AM -4.0 °F -14.6 °F -9.9 °F 76% 30.41 in 9.0 mi SE 4.6 mph - N/A   Clear
4:53 AM -7.1 °F -15.9 °F -11.9 °F 79% 30.42 in 9.0 mi South 3.5 mph - N/A   Clear
5:53 AM -5.1 °F - -9.0 °F 83% 30.42 in 10.0 mi Calm Calm - N/A   Clear
6:53 AM -2.9 °F -13.3 °F -8.0 °F 79% 30.39 in 9.0 mi SSE 4.6 mph - N/A   Clear
7:53 AM -2.9 °F -11.2 °F -8.0 °F 79% 30.37 in 8.0 mi SSE 3.5 mph - N/A   Clear
8:53 AM -0.0 °F - -4.0 °F 83% 30.37 in 8.0 mi Calm Calm - N/A   Clear
9:53 AM 3.9 °F -6.9 °F -0.0 °F 84% 30.36 in 10.0 mi South 5.8 mph - N/A   Clear
10:53 AM 8.1 °F -3.2 °F 3.0 °F 80% 30.35 in 10.0 mi South 6.9 mph - N/A   Scattered Clouds
11:53 AM 10.0 °F -3.7 °F 3.9 °F 76% 30.32 in 10.0 mi South 10.4 mph - N/A   Unknown
12:53 PM 15.1 °F 3.3 °F 3.9 °F 61% 30.28 in 10.0 mi South 9.2 mph - N/A   Overcast
1:53 PM 17.1 °F 5.0 °F 6.1 °F 62% 30.23 in 10.0 mi South 10.4 mph - N/A   Mostly Cloudy
2:53 PM 19.0 °F 9.0 °F 5.0 °F 54% 30.19 in 10.0 mi South 8.1 mph - N/A   Overcast
3:53 PM 19.9 °F 8.6 °F 5.0 °F 52% 30.19 in 10.0 mi SSW 10.4 mph - N/A   Mostly Cloudy
4:53 PM 19.9 °F 10.1 °F 7.0 °F 57% 30.17 in 10.0 mi South 8.1 mph - N/A   Overcast
5:53 PM 21.0 °F 14.6 °F 6.1 °F 53% 30.16 in 10.0 mi SSE 4.6 mph - N/A   Overcast
6:53 PM 19.9 °F - 6.1 °F 55% 30.17 in 10.0 mi Calm Calm - N/A   Overcast
7:53 PM 16.0 °F - 5.0 °F 62% 30.17 in 10.0 mi Calm Calm - N/A   Mostly Cloudy
8:53 PM 12.9 °F - 3.9 °F 67% 30.17 in 10.0 mi Calm Calm - N/A   Overcast
9:53 PM 12.0 °F - 3.9 °F 70% 30.16 in 10.0 mi Calm Calm - N/A   Mostly Cloudy
10:53 PM 18.0 °F 11.1 °F 7.0 °F 62% 30.11 in 10.0 mi SSE 4.6 mph - N/A   Overcast
11:53 PM 17.1 °F 8.7 °F 6.1 °F 62% 30.08 in 10.0 mi South 5.8 mph - N/A   Overcast